Flag for Poland Weather past 2 weeks in Tarnów, Poland

Now
40 °F

Sprinkles. Cloudy.


Feels Like: 38 °F
Forecast: 30 / 42 °F
Wind: 3 mph from West

Location: Tarnow

Current Time: Mar 4, 2015 at 10:09:03 AM

Latest Report: Mar 4, 2015 at 9:00 AM


Visibility: 19 mi

Pressure: 30.09 "Hg

Humidity: 57%

Dew point: 26 °F

Location of TarnówLocation

Historic Weather in Tarnów — Graph

°F

Tarnów temperature yesterday

Maximum temperature yesterday: 41 °F (at 4:00 PM)
Minimum temperature yesterday: 30 °F (at 6:00 AM)
Average temperature yesterday: 35 °F

Past Weeks' High & Low Weather Summary

 TemperatureHumidityPressure
High56 °F (Feb 23, 2:00 PM)98% (Feb 25, 3:00 PM)30.76 "Hg (Feb 25, 3:00 PM)
Low19 °F (Feb 18, 7:00 AM)21% (Feb 17, 2:00 PM)29.57 "Hg (Mar 2, 2:00 PM)
Average40 °F73%30.04 "Hg
* Reported Feb 17 8:00 AM — Mar 4 8:00 AM, Tarnów, Weather by CustomWeather, © 2015

Note: Actual official high and low records may vary slightly from our data, if they occured in-between our weather recording intervals... More about our weather records

Advertising

Tarnów weather history for previous 24 hours

 ConditionsComfort  
Time TempWeatherWind HumidityBarometerVisibility
8:00 AM
Wed, Mar 4
39 °FChilly.2 mph54%30.07 "Hg15 mi
7:00 AM36 °FChilly.5 mph57%30.06 "Hg12 mi
6:00 AM36 °FChilly.2 mph58%30.08 "Hg17 mi
5:00 AM35 °FChilly.3 mph60%30.09 "Hg28 mi
3:00 AM35 °FChilly.2 mph63%30.14 "Hg14 mi
2:00 AM34 °FChilly.1 mph68%30.16 "Hg9 mi
1:00 AM31 °FFog.1 mph76%30.17 "Hg4 mi
12:00 AM30 °FFog.1 mph78%30.18 "Hg5 mi
11:00 PM
Tue, Mar 3
31 °FFog.1 mph77%30.19 "Hg6 mi
10:00 PM34 °FFog.1 mph74%30.19 "Hg6 mi
9:00 PM32 °FFog.No wind76%30.19 "Hg3 mi
7:00 PM37 °FChilly.1 mph62%30.16 "Hg16 mi
6:00 PM39 °FChilly.1 mph56%30.14 "Hg19 mi
5:00 PM41 °FQuite cool.3 mph53%30.11 "Hg19 mi
4:00 PM41 °FQuite cool.3 mph56%30.09 "Hg16 mi
3:00 PM40 °FQuite cool.5 mph64%30.09 "Hg14 mi
2:00 PM38 °FChilly.5 mph71%30.09 "Hg12 mi
1:00 PM37 °FRain showers. Cloudy.3 mph83%30.08 "Hg9 mi
12:00 PM38 °FRain showers. Cloudy.3 mph80%30.06 "Hg7 mi
11:00 AM36 °FRain showers. Cloudy.3 mph88%30.05 "Hg3 mi
10:00 AM35 °FLight rain. Cloudy.3 mph92%30.04 "Hg5 mi
Weather by CustomWeather, © 2015

See weather overviewHow to use our weather pages